SWA8725 KGEG-KBWI

Flight info

Callsign SWA8725
Flight time N/A
Altitude 35000
Route MLP KU12O KU06W KP90C/N0462F370 RWF OOPEE BENNR WHETT J30 APE AIR KEMAN ANTHM5
Aircraft B38M/M-SDE1FGHILORVWXY/HB1

Departure

Time 2026-04-30 20:01
Airport Spokane International Airport (KGEG)

Arrival

Time N/A
Airport Baltimore/Washington International Thurgood Marshall Airport (KBWI)
Time Latitude Longitude Altitude Speed Heading
2026-04-30 19:34 47.61480 -117.53334 2392 ft 0 kts
2026-04-30 19:50 47.61496 -117.53335 2396 ft 6 kts 353°
2026-04-30 19:50 47.61527 -117.53413 2392 ft 13 kts 270°
2026-04-30 19:50 47.61527 -117.53569 2392 ft 18 kts 270°
2026-04-30 19:51 47.61528 -117.53683 2393 ft 11 kts 270°
2026-04-30 19:51 47.61560 -117.53790 2392 ft 13 kts 344°
2026-04-30 19:51 47.61636 -117.53719 2393 ft 15 kts 45°
2026-04-30 19:51 47.61705 -117.53614 2393 ft 14 kts 45°
2026-04-30 19:52 47.61778 -117.53504 2392 ft 15 kts 46°
2026-04-30 19:52 47.61857 -117.53387 2395 ft 17 kts 45°
2026-04-30 19:52 47.61940 -117.53261 2393 ft 7 kts 46°
2026-04-30 19:52 47.61965 -117.53222 2392 ft 7 kts 46°
2026-04-30 19:53 47.62002 -117.53166 2391 ft 9 kts 46°
2026-04-30 19:53 47.62032 -117.53121 2393 ft 10 kts 45°
2026-04-30 19:53 47.62091 -117.53033 2394 ft 14 kts 45°
2026-04-30 19:53 47.62167 -117.52919 2397 ft 17 kts 45°
2026-04-30 19:54 47.62258 -117.52783 2394 ft 18 kts 46°
2026-04-30 19:54 47.62352 -117.52640 2392 ft 21 kts 45°
2026-04-30 19:54 47.62446 -117.52499 2391 ft 13 kts 45°
2026-04-30 19:54 47.62514 -117.52397 2394 ft 16 kts 45°
2026-04-30 19:55 47.62597 -117.52272 2395 ft 19 kts 46°
2026-04-30 19:55 47.62669 -117.52162 2395 ft 11 kts 45°
2026-04-30 19:55 47.62688 -117.52134 2393 ft 4 kts 45°
2026-04-30 19:55 47.62714 -117.52096 2393 ft 7 kts 45°
2026-04-30 19:56 47.62756 -117.52033 2393 ft 10 kts 45°
2026-04-30 19:56 47.62814 -117.51946 2396 ft 14 kts 45°
2026-04-30 19:56 47.62881 -117.51844 2395 ft 14 kts 45°
2026-04-30 19:56 47.62940 -117.51757 2396 ft 9 kts 45°
2026-04-30 19:57 47.62986 -117.51697 2394 ft 9 kts 24°
2026-04-30 19:57 47.63041 -117.51733 2392 ft 4 kts 314°
2026-04-30 19:57 47.63066 -117.51771 2392 ft 6 kts 315°
2026-04-30 19:57 47.63099 -117.51825 2391 ft 7 kts 291°
2026-04-30 19:58 47.63086 -117.51882 2392 ft 5 kts 226°
2026-04-30 19:58 47.63078 -117.51894 2396 ft 0 kts 226°
2026-04-30 20:00 47.62947 -117.52093 2396 ft 62 kts 225°
2026-04-30 20:00 47.62483 -117.52792 2393 ft 126 kts 225°
2026-04-30 20:00 47.61738 -117.53914 2449 ft 173 kts 225°
2026-04-30 20:01 47.60035 -117.56580 3590 ft 182 kts 226°
2026-04-30 20:01 47.59148 -117.57880 4338 ft 179 kts 222°
2026-04-30 20:01 47.58202 -117.59227 4846 ft 199 kts 223°
2026-04-30 20:02 47.55998 -117.62467 5966 ft 245 kts 226°
2026-04-30 20:02 47.54783 -117.64372 6681 ft 260 kts 225°
2026-04-30 20:03 47.51511 -117.66779 8323 ft 273 kts 174°
2026-04-30 20:03 47.49672 -117.66042 9220 ft 279 kts 149°
2026-04-30 20:03 47.48277 -117.64165 10203 ft 278 kts 123°
2026-04-30 20:03 47.47588 -117.61437 10724 ft 295 kts 96°
2026-04-30 20:04 47.47610 -117.58318 11085 ft 312 kts 90°
2026-04-30 20:04 47.47583 -117.55029 11460 ft 326 kts 91°
2026-04-30 20:04 47.47550 -117.51643 12151 ft 329 kts 90°
2026-04-30 20:05 47.47516 -117.44831 13686 ft 334 kts 90°
2026-04-30 20:05 47.47502 -117.41384 14437 ft 336 kts 89°
2026-04-30 20:05 47.47475 -117.34409 15864 ft 342 kts 89°
2026-04-30 20:06 47.47460 -117.30883 16561 ft 345 kts 89°
2026-04-30 20:06 47.47445 -117.27378 17247 ft 347 kts 89°
2026-04-30 20:06 47.47428 -117.23794 17944 ft 350 kts 89°
2026-04-30 20:06 47.47410 -117.20180 18607 ft 353 kts 89°
2026-04-30 20:07 47.47392 -117.16536 19162 ft 356 kts 89°
2026-04-30 20:07 47.47372 -117.12857 19727 ft 359 kts 89°
2026-04-30 20:07 47.47328 -117.05402 20802 ft 366 kts 88°
2026-04-30 20:08 47.47305 -117.01622 21317 ft 369 kts 88°
2026-04-30 20:08 47.47281 -116.97818 21838 ft 372 kts 88°
2026-04-30 20:08 47.47254 -116.93970 22357 ft 376 kts 88°
2026-04-30 20:08 47.47227 -116.90094 22874 ft 379 kts 88°
2026-04-30 20:09 47.47198 -116.86173 23377 ft 382 kts 88°
2026-04-30 20:09 47.47167 -116.82236 23857 ft 385 kts 88°
2026-04-30 20:09 47.47099 -116.74286 24727 ft 388 kts 88°
2026-04-30 20:10 47.47029 -116.66267 25617 ft 392 kts 89°
2026-04-30 20:10 47.46991 -116.62235 26047 ft 394 kts 88°
2026-04-30 20:10 47.46951 -116.58173 26448 ft 395 kts 88°
2026-04-30 20:11 47.46870 -116.50014 27263 ft 398 kts 89°
2026-04-30 20:11 47.46826 -116.45906 27667 ft 400 kts 89°
2026-04-30 20:11 47.46782 -116.41839 28035 ft 402 kts 89°
2026-04-30 20:12 47.46688 -116.33529 28761 ft 406 kts 89°
2026-04-30 20:12 47.46638 -116.29345 29158 ft 407 kts 89°
2026-04-30 20:12 47.46587 -116.25149 29537 ft 409 kts 89°
2026-04-30 20:13 47.46534 -116.20925 29871 ft 411 kts 89°
2026-04-30 20:13 47.46480 -116.16695 30209 ft 413 kts 89°
2026-04-30 20:13 47.46423 -116.12442 30485 ft 415 kts 89°
2026-04-30 20:13 47.46366 -116.08168 30771 ft 416 kts 89°
2026-04-30 20:14 47.46307 -116.03943 31025 ft 418 kts 89°
2026-04-30 20:14 47.46245 -115.99640 31308 ft 420 kts 89°
2026-04-30 20:14 47.46183 -115.95315 31595 ft 421 kts 89°
2026-04-30 20:14 47.46118 -115.90968 31866 ft 423 kts 89°
2026-04-30 20:15 47.46052 -115.86617 32124 ft 425 kts 88°
2026-04-30 20:15 47.45983 -115.82240 32395 ft 427 kts 88°
2026-04-30 20:15 47.45913 -115.77847 32736 ft 426 kts 88°
2026-04-30 20:15 47.45841 -115.73475 33087 ft 426 kts 88°
2026-04-30 20:16 47.45768 -115.69090 33155 ft 425 kts 88°
2026-04-30 20:16 47.45222 -115.60423 33139 ft 425 kts 95°
2026-04-30 20:17 47.44291 -115.51780 33117 ft 426 kts 95°
2026-04-30 20:17 47.43347 -115.43192 33151 ft 426 kts 95°
2026-04-30 20:18 47.42390 -115.34560 33151 ft 425 kts 96°
2026-04-30 20:18 47.41427 -115.25925 33161 ft 427 kts 96°
2026-04-30 20:19 47.40455 -115.17286 33170 ft 426 kts 95°
2026-04-30 20:19 47.39479 -115.08662 33174 ft 426 kts 96°
2026-04-30 20:20 47.38495 -115.00029 33219 ft 427 kts 96°
2026-04-30 20:20 47.37504 -114.91398 33193 ft 425 kts 96°
2026-04-30 20:21 47.36516 -114.82844 33224 ft 425 kts 96°
2026-04-30 20:21 47.35515 -114.74237 33219 ft 425 kts 96°
2026-04-30 20:22 47.34504 -114.65616 33182 ft 426 kts 96°
2026-04-30 20:22 47.33490 -114.57012 33229 ft 426 kts 96°
2026-04-30 20:23 47.32470 -114.48426 33237 ft 425 kts 96°
2026-04-30 20:23 47.31445 -114.39853 33249 ft 425 kts 96°
2026-04-30 20:24 47.30414 -114.31286 33268 ft 424 kts 96°
2026-04-30 20:24 47.29384 -114.22774 33223 ft 423 kts 96°
2026-04-30 20:25 47.27819 -114.09963 33268 ft 424 kts 96°
2026-04-30 20:26 47.26241 -113.97161 33272 ft 424 kts 96°
2026-04-30 20:26 47.24646 -113.84355 33250 ft 423 kts 96°
2026-04-30 20:27 47.22501 -113.67311 33265 ft 423 kts 96°
2026-04-30 20:28 47.20331 -113.50284 33257 ft 423 kts 96°
2026-04-30 20:30 47.17586 -113.29043 33261 ft 423 kts 96°
2026-04-30 20:31 47.14238 -113.03571 33270 ft 424 kts 96°
2026-04-30 20:32 47.11410 -112.82401 33243 ft 423 kts 96°
2026-04-30 20:33 47.09692 -112.69690 33266 ft 423 kts 96°
2026-04-30 20:34 47.07963 -112.57013 33250 ft 423 kts 96°
2026-04-30 20:35 47.06225 -112.44381 33262 ft 423 kts 96°
2026-04-30 20:35 47.04466 -112.31697 33272 ft 423 kts 96°
2026-04-30 20:36 47.03287 -112.23239 33259 ft 423 kts 96°
2026-04-30 20:37 47.01508 -112.10571 33264 ft 423 kts 96°
2026-04-30 20:37 47.00315 -112.02131 33282 ft 423 kts 96°
2026-04-30 20:38 46.99534 -111.93656 33282 ft 419 kts 92°
2026-04-30 20:38 46.98797 -111.85181 33254 ft 419 kts 92°
2026-04-30 20:39 46.97655 -111.72503 33277 ft 420 kts 92°
2026-04-30 20:40 46.96624 -111.61222 33269 ft 420 kts 92°
2026-04-30 20:40 46.95713 -111.51362 33258 ft 420 kts 92°
2026-04-30 20:41 46.94655 -111.40019 33252 ft 420 kts 92°
2026-04-30 20:41 46.93861 -111.31580 33266 ft 420 kts 92°
2026-04-30 20:42 46.93056 -111.23104 33236 ft 420 kts 92°
2026-04-30 20:43 46.91840 -111.10425 33250 ft 421 kts 92°
2026-04-30 20:43 46.91019 -111.01946 33256 ft 421 kts 92°
2026-04-30 20:44 46.89774 -110.89219 33255 ft 422 kts 92°
2026-04-30 20:45 46.88097 -110.72304 33260 ft 422 kts 92°
2026-04-30 20:45 46.87245 -110.63814 33242 ft 422 kts 92°
2026-04-30 20:46 46.85525 -110.46859 33248 ft 422 kts 92°
2026-04-30 20:47 46.84221 -110.34174 33244 ft 422 kts 92°
2026-04-30 20:48 46.82898 -110.21457 33240 ft 423 kts 92°
2026-04-30 20:48 46.82006 -110.12952 33234 ft 423 kts 93°
2026-04-30 20:49 46.81107 -110.04446 33229 ft 423 kts 93°
2026-04-30 20:50 46.79754 -109.91761 33235 ft 423 kts 92°
2026-04-30 20:50 46.78839 -109.83264 33203 ft 424 kts 93°
2026-04-30 20:51 46.77916 -109.74749 33212 ft 424 kts 93°
2026-04-30 20:51 46.76520 -109.61988 33206 ft 424 kts 93°
2026-04-30 20:52 46.75580 -109.53474 33216 ft 426 kts 93°
2026-04-30 20:53 46.74161 -109.40727 33218 ft 427 kts 93°
2026-04-30 20:53 46.73202 -109.32186 33209 ft 426 kts 93°
2026-04-30 20:54 46.71751 -109.19383 33210 ft 426 kts 93°
2026-04-30 20:55 46.70286 -109.06586 33197 ft 426 kts 94°
2026-04-30 20:55 46.69309 -108.98123 33213 ft 427 kts 93°
2026-04-30 20:56 46.67816 -108.85304 33194 ft 427 kts 93°
2026-04-30 20:57 46.66310 -108.72501 33198 ft 428 kts 94°
2026-04-30 20:57 46.65295 -108.63936 33197 ft 430 kts 94°
2026-04-30 20:58 46.63759 -108.51093 33223 ft 430 kts 94°
2026-04-30 20:58 46.62728 -108.42550 33202 ft 431 kts 94°
2026-04-30 20:59 46.61160 -108.29645 33203 ft 431 kts 94°
2026-04-30 21:00 46.59046 -108.12461 33211 ft 431 kts 94°
2026-04-30 21:01 46.57449 -107.99614 33222 ft 434 kts 94°
2026-04-30 21:02 46.55808 -107.86548 33220 ft 438 kts 94°
2026-04-30 21:02 46.54705 -107.77837 33222 ft 438 kts 94°
2026-04-30 21:03 46.53604 -107.69187 33217 ft 438 kts 94°
2026-04-30 21:03 46.52489 -107.60493 33225 ft 438 kts 95°
2026-04-30 21:04 46.51364 -107.51774 33224 ft 441 kts 95°
2026-04-30 21:04 46.49657 -107.38647 33224 ft 441 kts 95°
2026-04-30 21:05 46.48511 -107.29901 33223 ft 441 kts 95°
2026-04-30 21:05 46.47354 -107.21127 33230 ft 445 kts 95°
2026-04-30 21:06 46.46187 -107.12330 33249 ft 446 kts 96°
2026-04-30 21:06 46.45002 -107.03454 33232 ft 449 kts 96°
2026-04-30 21:07 46.43807 -106.94562 33230 ft 449 kts 96°
2026-04-30 21:07 46.42605 -106.85669 33229 ft 449 kts 96°
2026-04-30 21:08 46.41398 -106.76791 33226 ft 449 kts 96°
2026-04-30 21:08 46.40184 -106.67918 33243 ft 449 kts 96°
2026-04-30 21:09 46.38965 -106.59068 33220 ft 451 kts 96°
2026-04-30 21:09 46.37731 -106.50156 33210 ft 453 kts 96°
2026-04-30 21:10 46.36478 -106.41169 33212 ft 455 kts 97°
2026-04-30 21:10 46.35216 -106.32171 33207 ft 455 kts 97°
2026-04-30 21:11 46.33950 -106.23194 33211 ft 455 kts 97°
2026-04-30 21:11 46.32679 -106.14237 33208 ft 458 kts 97°
2026-04-30 21:12 46.31385 -106.05175 33205 ft 459 kts 97°
2026-04-30 21:12 46.30085 -105.96123 33206 ft 459 kts 97°
2026-04-30 21:13 46.28781 -105.87093 33204 ft 459 kts 97°
2026-04-30 21:13 46.27468 -105.78058 33206 ft 460 kts 98°
2026-04-30 21:14 46.26146 -105.69016 33211 ft 463 kts 98°
2026-04-30 21:14 46.24808 -105.59919 33209 ft 462 kts 98°
2026-04-30 21:15 46.23464 -105.50833 33206 ft 462 kts 98°
2026-04-30 21:15 46.22114 -105.41760 33214 ft 462 kts 98°
2026-04-30 21:16 46.20755 -105.32680 33206 ft 462 kts 98°
2026-04-30 21:16 46.19387 -105.23586 33209 ft 464 kts 98°
2026-04-30 21:17 46.18007 -105.14471 33204 ft 464 kts 98°
2026-04-30 21:17 46.16620 -105.05364 33200 ft 466 kts 99°
2026-04-30 21:18 46.15227 -104.96261 33205 ft 468 kts 99°
2026-04-30 21:18 46.13815 -104.87097 33223 ft 468 kts 99°
2026-04-30 21:19 46.12394 -104.77921 33209 ft 470 kts 99°
2026-04-30 21:19 46.10966 -104.68733 33212 ft 470 kts 99°
2026-04-30 21:20 46.09528 -104.59534 33205 ft 470 kts 99°
2026-04-30 21:20 46.08085 -104.50353 33202 ft 470 kts 99°
2026-04-30 21:21 46.06634 -104.41166 33221 ft 470 kts 99°
2026-04-30 21:22 46.04451 -104.27438 33203 ft 472 kts 100°
2026-04-30 21:23 46.01492 -104.09003 33198 ft 472 kts 100°
2026-04-30 21:23 45.99390 -103.95155 33214 ft 472 kts 98°
2026-04-30 21:24 45.98104 -103.85882 33194 ft 473 kts 98°
2026-04-30 21:24 45.96818 -103.76671 33188 ft 473 kts 98°
2026-04-30 21:25 45.94859 -103.62760 33177 ft 473 kts 98°
2026-04-30 21:26 45.92884 -103.48863 33174 ft 473 kts 98°
2026-04-30 21:27 45.90890 -103.34959 33169 ft 474 kts 98°
2026-04-30 21:27 45.89550 -103.25684 33173 ft 474 kts 99°
2026-04-30 21:28 45.87754 -103.13348 33177 ft 474 kts 99°
2026-04-30 21:29 45.85718 -102.99471 33174 ft 474 kts 99°
2026-04-30 21:30 45.82290 -102.76394 33168 ft 475 kts 99°
2026-04-30 21:31 45.78799 -102.53239 33173 ft 475 kts 99°
2026-04-30 21:32 45.76684 -102.39369 33184 ft 475 kts 99°
2026-04-30 21:32 45.75274 -102.30192 33187 ft 475 kts 99°
2026-04-30 21:33 45.73131 -102.16338 33190 ft 474 kts 99°
2026-04-30 21:34 45.71696 -102.07129 33184 ft 475 kts 99°
2026-04-30 21:34 45.69522 -101.93276 33190 ft 475 kts 99°
2026-04-30 21:35 45.68063 -101.84046 33187 ft 475 kts 99°
2026-04-30 21:35 45.66599 -101.74832 33188 ft 475 kts 99°
2026-04-30 21:36 45.65129 -101.65636 33182 ft 474 kts 99°
2026-04-30 21:37 45.62175 -101.47304 33175 ft 474 kts 99°
2026-04-30 21:37 45.60683 -101.38119 33182 ft 474 kts 99°
2026-04-30 21:38 45.59181 -101.28921 33168 ft 476 kts 100°
2026-04-30 21:38 45.57679 -101.19779 33168 ft 476 kts 100°
2026-04-30 21:39 45.56160 -101.10583 33161 ft 476 kts 100°
2026-04-30 21:39 45.54631 -101.01373 33149 ft 476 kts 100°
2026-04-30 21:40 45.53097 -100.92180 33160 ft 476 kts 100°
2026-04-30 21:40 45.51566 -100.83058 33135 ft 475 kts 100°
2026-04-30 21:41 45.50018 -100.73881 33123 ft 475 kts 101°
2026-04-30 21:41 45.48465 -100.64724 33119 ft 475 kts 101°
2026-04-30 21:42 45.46903 -100.55559 33106 ft 476 kts 101°
2026-04-30 21:42 45.45330 -100.46379 33113 ft 477 kts 101°
2026-04-30 21:43 45.43752 -100.37222 33110 ft 476 kts 101°
2026-04-30 21:43 45.42175 -100.28116 33116 ft 476 kts 101°
2026-04-30 21:44 45.40582 -100.18963 33120 ft 476 kts 101°
2026-04-30 21:44 45.38980 -100.09807 33141 ft 476 kts 101°
2026-04-30 21:45 45.37371 -100.00660 33119 ft 476 kts 101°
2026-04-30 21:45 45.35759 -99.91540 33120 ft 476 kts 101°
2026-04-30 21:46 45.34140 -99.82421 33106 ft 476 kts 102°
2026-04-30 21:46 45.32516 -99.73328 33114 ft 477 kts 102°
2026-04-30 21:47 45.30875 -99.64185 33122 ft 477 kts 102°
2026-04-30 21:47 45.29228 -99.55049 33105 ft 477 kts 102°
2026-04-30 21:48 45.27571 -99.45908 33104 ft 477 kts 102°
2026-04-30 21:48 45.25909 -99.36786 33114 ft 477 kts 102°
2026-04-30 21:49 45.24251 -99.27727 33135 ft 477 kts 102°
2026-04-30 21:49 45.22573 -99.18607 33103 ft 477 kts 102°
2026-04-30 21:50 45.20892 -99.09512 33099 ft 477 kts 102°
2026-04-30 21:50 45.19196 -99.00384 33106 ft 479 kts 102°
2026-04-30 21:51 45.17495 -98.91270 33110 ft 478 kts 103°
2026-04-30 21:51 45.15783 -98.82146 33121 ft 479 kts 103°
2026-04-30 21:52 45.14074 -98.73075 33101 ft 478 kts 103°
2026-04-30 21:52 45.12349 -98.63970 33110 ft 478 kts 103°
2026-04-30 21:53 45.10619 -98.54871 33116 ft 479 kts 103°
2026-04-30 21:53 45.08880 -98.45764 33134 ft 478 kts 103°
2026-04-30 21:54 45.07136 -98.36671 33106 ft 478 kts 103°
2026-04-30 21:54 45.05393 -98.27622 33125 ft 480 kts 103°
2026-04-30 21:55 45.03627 -98.18495 33118 ft 480 kts 103°
2026-04-30 21:55 45.01857 -98.09390 33126 ft 480 kts 103°
2026-04-30 21:56 45.00100 -98.00286 33129 ft 480 kts 102°
2026-04-30 21:56 44.98537 -97.91149 33134 ft 480 kts 102°
2026-04-30 21:57 44.96952 -97.81976 33130 ft 480 kts 102°
2026-04-30 21:57 44.95358 -97.72804 33128 ft 480 kts 102°
2026-04-30 21:58 44.93757 -97.63637 33156 ft 480 kts 102°
2026-04-30 21:58 44.92142 -97.54435 33122 ft 487 kts 103°
2026-04-30 21:59 44.90502 -97.45143 33114 ft 492 kts 103°
2026-04-30 22:00 44.88006 -97.31088 33100 ft 492 kts 103°
2026-04-30 22:00 44.85494 -97.17055 33100 ft 492 kts 103°
2026-04-30 22:01 44.83809 -97.07703 33099 ft 492 kts 103°
2026-04-30 22:01 44.82118 -96.98365 33112 ft 492 kts 103°
2026-04-30 22:02 44.80432 -96.89098 33120 ft 492 kts 103°
2026-04-30 22:02 44.78724 -96.79761 33119 ft 493 kts 103°
2026-04-30 22:03 44.77000 -96.70380 33145 ft 495 kts 103°
2026-04-30 22:03 44.75267 -96.61002 33139 ft 494 kts 103°
2026-04-30 22:04 44.73528 -96.51636 33111 ft 494 kts 104°
2026-04-30 22:05 44.70914 -96.37647 33101 ft 495 kts 104°
2026-04-30 22:05 44.69154 -96.28282 33100 ft 496 kts 104°
2026-04-30 22:06 44.67385 -96.18918 33100 ft 495 kts 104°
2026-04-30 22:06 44.64728 -96.04945 33120 ft 495 kts 104°
2026-04-30 22:07 44.62941 -95.95599 33113 ft 495 kts 104°
2026-04-30 22:07 44.61144 -95.86252 33109 ft 495 kts 104°
2026-04-30 22:08 44.59342 -95.76921 33108 ft 495 kts 104°
2026-04-30 22:08 44.57535 -95.67612 33118 ft 495 kts 104°
2026-04-30 22:09 44.55728 -95.58345 33120 ft 495 kts 104°
2026-04-30 22:09 44.53902 -95.49022 33121 ft 495 kts 105°
2026-04-30 22:10 44.52071 -95.39721 33122 ft 495 kts 105°
2026-04-30 22:10 44.49970 -95.30527 33130 ft 495 kts 107°
2026-04-30 22:11 44.46815 -95.16726 33115 ft 497 kts 107°
2026-04-30 22:12 44.44703 -95.07518 33111 ft 497 kts 107°
2026-04-30 22:12 44.42597 -94.98371 33113 ft 497 kts 108°
2026-04-30 22:13 44.40469 -94.89170 33120 ft 498 kts 108°
2026-04-30 22:13 44.38329 -94.79957 33124 ft 498 kts 108°
2026-04-30 22:14 44.36183 -94.70753 33129 ft 498 kts 108°
2026-04-30 22:14 44.34031 -94.61567 33100 ft 498 kts 108°
2026-04-30 22:15 44.31870 -94.52378 33096 ft 498 kts 108°
2026-04-30 22:15 44.29696 -94.43168 33096 ft 499 kts 108°
2026-04-30 22:16 44.27514 -94.33968 33119 ft 499 kts 108°
2026-04-30 22:17 44.23143 -94.15648 33109 ft 500 kts 108°
2026-04-30 22:17 44.20198 -94.03388 33092 ft 500 kts 109°
2026-04-30 22:18 44.16872 -93.89621 33089 ft 500 kts 109°
2026-04-30 22:19 44.13525 -93.75855 33103 ft 502 kts 109°
2026-04-30 22:20 44.10149 -93.62052 33100 ft 502 kts 109°
2026-04-30 22:20 44.06777 -93.48344 33103 ft 502 kts 109°
2026-04-30 22:21 44.05641 -93.43746 33336 ft 503 kts 109°
2026-04-30 22:21 44.04501 -93.39140 33546 ft 505 kts 109°
2026-04-30 22:21 44.03357 -93.34528 33770 ft 505 kts 109°
2026-04-30 22:21 44.02211 -93.29917 34071 ft 504 kts 109°
2026-04-30 22:22 44.01065 -93.25313 34313 ft 504 kts 109°
2026-04-30 22:22 43.99915 -93.20706 34546 ft 504 kts 109°
2026-04-30 22:22 43.98765 -93.16105 34771 ft 504 kts 110°
2026-04-30 22:22 43.97613 -93.11507 34939 ft 506 kts 110°
2026-04-30 22:23 43.96452 -93.06883 35049 ft 507 kts 110°
2026-04-30 22:23 43.95290 -93.02263 35085 ft 507 kts 110°
2026-04-30 22:23 43.92961 -92.93032 35052 ft 506 kts 110°
2026-04-30 22:24 43.90629 -92.83822 35056 ft 506 kts 110°
2026-04-30 22:24 43.88289 -92.74622 35074 ft 506 kts 110°
2026-04-30 22:25 43.85939 -92.65415 35073 ft 506 kts 110°
2026-04-30 22:25 43.83596 -92.56274 35063 ft 506 kts 110°
2026-04-30 22:26 43.80049 -92.42498 35050 ft 507 kts 110°
2026-04-30 22:27 43.77665 -92.33286 35055 ft 509 kts 111°
2026-04-30 22:27 43.74069 -92.19459 35048 ft 510 kts 111°
2026-04-30 22:28 43.70471 -92.05701 35039 ft 510 kts 111°
2026-04-30 22:29 43.65622 -91.87291 35078 ft 509 kts 111°
2026-04-30 22:31 43.57047 -91.55069 35049 ft 513 kts 111°
2026-04-30 22:32 43.50839 -91.32010 35060 ft 513 kts 111°
2026-04-30 22:33 43.44603 -91.09063 35057 ft 514 kts 112°
2026-04-30 22:35 43.38275 -90.85995 35028 ft 517 kts 112°
2026-04-30 22:36 43.31895 -90.62956 35024 ft 517 kts 112°
2026-04-30 22:37 43.26740 -90.44496 35020 ft 517 kts 112°
2026-04-30 22:38 43.21584 -90.26173 34984 ft 517 kts 112°
2026-04-30 22:39 43.17665 -90.12331 35007 ft 519 kts 113°
2026-04-30 22:40 43.09773 -89.84690 35014 ft 520 kts 113°
2026-04-30 22:41 43.03160 -89.61759 35018 ft 520 kts 113°
2026-04-30 22:43 42.95103 -89.34099 35019 ft 523 kts 114°
2026-04-30 22:44 42.89679 -89.15648 35031 ft 524 kts 114°
2026-04-30 22:45 42.81504 -88.88083 35040 ft 524 kts 114°
2026-04-30 22:47 42.73272 -88.60623 35049 ft 523 kts 114°
2026-04-30 22:48 42.67736 -88.42319 35041 ft 522 kts 114°
2026-04-30 22:49 42.58644 -88.15770 35014 ft 505 kts 142°
2026-04-30 22:51 42.42151 -87.98127 35056 ft 505 kts 145°
2026-04-30 22:52 42.34097 -87.88985 35055 ft 506 kts 146°
2026-04-30 22:53 42.23298 -87.76772 35064 ft 506 kts 146°
2026-04-30 22:53 42.15177 -87.67625 35049 ft 506 kts 146°
2026-04-30 22:55 42.01662 -87.52472 35057 ft 507 kts 146°
2026-04-30 22:56 41.90800 -87.40357 35055 ft 508 kts 146°
2026-04-30 22:57 41.77222 -87.25289 35047 ft 508 kts 147°
2026-04-30 22:58 41.66312 -87.13244 35046 ft 508 kts 147°
2026-04-30 22:59 41.49959 -86.95292 35004 ft 509 kts 147°